This is the latest recevied weather packets stored in our database for station/object N1JOV-7. If no packets are shown the sender has not sent any weather packets the latest 10 day(s).
| Time | Temp. | Humidity | Pressure | Rain* | Wind** | Luminosity | Snow |
|---|---|---|---|---|---|---|---|
| 1788274861 | 20.56° C | 77% | 1018.7 hPa | 0 mm | - | - | - |
| 1788274261 | 20° C | 78% | 1019 hPa | 0 mm | - | - | - |
| 1788273661 | 20° C | 77% | 1018.8 hPa | 0 mm | - | - | - |
| 1788273061 | 19.44° C | 77% | 1019 hPa | 0 mm | - | - | - |
| 1788272462 | 19.44° C | 78% | 1019 hPa | 0 mm | - | - | - |
| 1788271862 | 18.89° C | 79% | 1019.1 hPa | 0 mm | - | - | - |
| 1788271262 | 18.33° C | 81% | 1019.3 hPa | 0 mm | - | - | - |
| 1788270662 | 17.78° C | 82% | 1019.2 hPa | 0 mm | - | - | - |
| 1788270062 | 17.22° C | 85% | 1019.2 hPa | 0 mm | - | - | - |
| 1788269461 | 16.67° C | 88% | 1019.2 hPa | 0 mm | - | - | - |
| 1788268861 | 16.11° C | 90% | 1019.4 hPa | 0 mm | - | - | - |
| 1788268261 | 15.56° C | 92% | 1019.3 hPa | 0 mm | - | - | - |
| 1788267661 | 15° C | 94% | 1019.2 hPa | 0 mm | - | - | - |
| 1788267061 | 14.44° C | 97% | 1019.3 hPa | 0 mm | - | - | - |
| 1788266467 | 14.44° C | 99% | 1019.3 hPa | 0 mm | - | - | - |
| 1788265862 | 13.89° C | 99% | 1019.4 hPa | 0 mm | - | - | - |
| 1788265262 | 13.33° C | 99% | 1019.4 hPa | 0 mm | - | - | - |
| 1788264662 | 13.33° C | 99% | 1019.2 hPa | 0 mm | - | - | - |
| 1788264062 | 12.78° C | 99% | 1019.2 hPa | 0 mm | - | - | - |
| 1788263462 | 12.22° C | 99% | 1019.3 hPa | 0 mm | - | - | - |
| 1788262862 | 12.22° C | 99% | 1019.3 hPa | 0 mm | - | - | - |
| 1788262261 | 12.22° C | 99% | 1019.3 hPa | 0 mm | - | - | - |
| 1788261661 | 11.67° C | 99% | 1019 hPa | 0 mm | - | - | - |
| 1788261061 | 11.67° C | 99% | 1018.9 hPa | 0 mm | - | - | - |
| 1788260466 | 11.11° C | 99% | 1019 hPa | 0 mm | - | - | - |
* Rain latest hour (hover to see other rain measurements)
** Current wind speed in m/s (hover to see current wind gust speed)